Station 44032 - Buoy E01 - Central Maine Shelf Image indicating link to RSS feed of recent meteorological observations for station 44032


Conditions at 44032 as of
(6:00 am EDT)
1000 GMT on 05/09/2026:
     

Click on the graph icon in the table below to see a time series plot of the last five days of that observation.

5-day plot - Wind Direction Wind Direction (WDIR): E ( 100 deg true )
5-day plot - Wind Speed Wind Speed (WSPD): 1.9 kts
5-day plot - Wind Gust Wind Gust (GST): 3.9 kts
5-day plot - Air Temperature Air Temperature (ATMP): 45.1 °F
5-day plot - Visibility Visibility (VIS) (0 to 1.6 nmi): 1.6 nmi
5-day plot - Wind Speed at 10 Meters Wind Speed at 10 meters (WSPD10M): 3.9 kts
5-day plot - Wind Speed at 20 Meters Wind Speed at 20 meters (WSPD20M): 3.9 kts
5-day plot -  Wind Speed, Wind Gust and Atmospheric Pressure Combined plot of Wind Speed, Gust, and Air Pressure
Previous observations
TIME
(EDT)
5-day plot - Wind Direction
WDIR
 
5-day plot - Wind Speed
WSPD
kts
5-day plot - Wind Gust
GST
kts
5-day plot - Wave Height
WVHT
ft
5-day plot - Dominant Wave Period
DPD
sec
5-day plot - Average Wave Period
APD
sec
5-day plot - Mean Wave Direction
MWD
 
5-day plot - Atmospheric Pressure
PRES
in
5-day plot - Pressure Tendency
PTDY
in
5-day plot - Air Temperature
ATMP
°F
5-day plot - Water Temperature
WTMP
°F
5-day plot - Dew Point
DEWP
°F
5-day plot - Salinity
SAL
psu
5-day plot - Visibility
VIS
nmi
5-day plot - Tide (above MLLW)
TIDE
ft
2026-05-09 05:50 am E 1.9 3.9------ 45.9--- 1.6-
2026-05-09 05:40 am E 1.9 3.9------ 45.0--- 1.6-
2026-05-09 05:30 amENE 1.9 3.9------ 44.6--- 1.6-
2026-05-09 05:20 amENE 1.9 3.9------ 44.6--- 1.6-
2026-05-09 05:10 amENE 1.9 3.9------ 44.2--- 1.6-
2026-05-09 05:00 amESE 1.9 3.9 2.6 9---- 44.2 44.1-- 1.6-
2026-05-09 04:50 am SW 1.9 1.9------ 44.6--- 1.6-
2026-05-09 04:40 amSSW 3.9 3.9------ 44.8--- 1.6-
2026-05-09 04:30 amSSW 3.9 5.8------ 45.0--- 1.6-
2026-05-09 04:20 am SW 5.8 5.8------ 45.1--- 1.6-
2026-05-09 04:10 am SW 5.8 5.8------ 45.5--- 1.6-
2026-05-09 04:00 am SW 5.8 5.8 2.6 10---- 45.1 44.2-- 1.6-
2026-05-09 03:50 amWSW 3.9 5.8------ 45.3--- 1.6-
2026-05-09 03:40 am SW 3.9 5.8------ 45.1--- 1.6-
2026-05-09 03:30 am SW 3.9 5.8------ 44.8--- 1.6-
2026-05-09 03:20 am SW 5.8 7.8------ 45.1--- 1.6-
2026-05-09 03:10 amSSW 5.8 7.8------ 45.1--- 1.6-
2026-05-09 03:00 amSSW 5.8 7.8 3.0 10---- 45.1 44.2-- 1.6-
2026-05-09 02:50 am SW 5.8 5.8------ 45.0--- 1.6-
2026-05-09 02:40 amSSW 5.8 7.8------ 44.8--- 1.6-
2026-05-09 02:30 amSSW 5.8 7.8------ 44.8--- 1.6-
2026-05-09 02:20 amSSW 5.8 7.8------ 44.6--- 1.6-
2026-05-09 02:10 amSSW 5.8 7.8------ 44.6--- 1.6-
2026-05-09 02:00 amSSW 5.8 7.8------ 44.6--- 1.6-
2026-05-09 01:50 amSSW 3.9 5.8------ 44.4--- 1.6-
2026-05-09 01:40 amWSW 1.9 3.9------ 44.6--- 1.6-
2026-05-09 01:30 am W 1.9 3.9------ 44.8--- 1.6-
2026-05-09 01:20 am NW 3.9 3.9------ 45.0--- 1.6-
2026-05-09 01:10 amNNW 3.9 5.8------ 45.1--- 1.6-
2026-05-09 01:00 amNNW 3.9 5.8 3.0 8---- 45.1 44.2-- 1.6-
2026-05-09 12:50 am NW 3.9 5.8------ 45.0--- 1.6-
2026-05-09 12:40 am NW 3.9 5.8------ 45.0--- 1.6-
2026-05-09 12:30 am NW 3.9 3.9------ 45.1--- 1.6-
2026-05-09 12:20 am W 3.9 5.8------ 44.6--- 1.6-
2026-05-09 12:10 am W 3.9 3.9------ 44.8--- 1.6-
2026-05-09 12:00 amWNW 1.9 3.9------ 44.8--- 1.6-
2026-05-08 11:50 pmWNW 3.9 3.9------ 45.0--- 1.6-
2026-05-08 11:40 pmWNW 1.9 3.9------ 45.0--- 1.6-
2026-05-08 11:30 pmWNW 3.9 3.9------ 45.1--- 1.6-
2026-05-08 11:20 pm W 3.9 3.9------ 44.8--- 1.6-
2026-05-08 11:10 pm W 3.9 5.8------ 44.8--- 1.6-
2026-05-08 11:00 pmWSW 3.9 5.8 3.0 9---- 44.8 44.1-- 1.6-
2026-05-08 10:50 pmWSW 1.9 3.9------ 45.3--- 1.6-
2026-05-08 10:40 pmWSW 3.9 3.9------ 45.9--- 1.6-
2026-05-08 10:30 pm W 3.9 3.9------ 46.0--- 1.6-
2026-05-08 10:20 pm W 3.9 3.9------ 46.2--- 1.6-
2026-05-08 10:10 pmWNW 3.9 5.8------ 46.9--- 1.6-
2026-05-08 10:00 pmWNW 3.9 5.8 3.3 8---- 46.2 44.1-- 1.6-
2026-05-08 09:50 pmWNW 3.9 5.8------ 46.6--- 1.6-
2026-05-08 09:40 pmWNW 3.9 5.8------ 46.0--- 1.6-
2026-05-08 09:30 pmWNW 3.9 5.8------ 46.2--- 1.6-
2026-05-08 09:20 pmWNW 3.9 3.9------ 45.9--- 1.6-
2026-05-08 09:10 pmWNW 1.9 3.9------ 45.7--- 1.6-
2026-05-08 09:00 pm NW 1.9 3.9 3.0 9---- 45.7 43.7-- 1.6-
2026-05-08 08:50 pmWNW 3.9 3.9------ 45.9--- 1.6-
2026-05-08 08:40 pmWNW 3.9 3.9------ 46.2--- 1.6-
2026-05-08 08:30 pmWNW 3.9 5.8------ 46.9--- 1.6-
2026-05-08 08:20 pmWNW 3.9 5.8------ 46.8--- 1.6-
2026-05-08 08:10 pmWNW 3.9 5.8------ 46.2--- 1.6-
2026-05-08 08:00 pmWNW 3.9 5.8 2.6 8---- 46.6 44.4-- 1.6-
2026-05-08 07:50 pmWNW 5.8 5.8------ 46.9--- 1.6-
2026-05-08 07:40 pmWNW 5.8 7.8------ 47.5--- 1.6-
2026-05-08 07:30 pmWNW 5.8 7.8------ 47.8--- 1.6-
2026-05-08 07:20 pmWNW 7.8 9.7------ 48.0--- 1.6-
2026-05-08 07:10 pmWNW 7.8 9.7------ 47.8--- 1.6-
2026-05-08 07:00 pm W 7.8 9.7 3.0 9---- 47.5--- 1.6-
2026-05-08 06:50 pm W 7.8 9.7------ 47.5--- 1.6-
2026-05-08 06:40 pm W 7.8 9.7------ 47.3--- 1.6-
2026-05-08 06:30 pm---------- 44.2----
2026-05-08 06:20 pmWSW 7.8 7.8------ 46.9--- 1.6-
2026-05-08 06:10 pm SW 7.8 9.7------ 47.1--- 1.6-
2026-05-08 06:00 pmWSW 7.8 7.8------ 47.1--- 1.6-
2026-05-08 05:50 pm SW 7.8 9.7------ 47.1--- 1.6-
2026-05-08 05:40 pmWSW 7.8 9.7------ 46.8--- 1.6-
2026-05-08 05:30 pmWSW 9.7 11.7------ 46.8--- 1.6-
2026-05-08 05:20 pmWSW 9.7 11.7------ 46.8--- 1.6-
2026-05-08 05:10 pmWSW 9.7 11.7------ 47.1--- 1.6-
2026-05-08 05:00 pmWSW 9.7 13.6------ 46.9--- 1.6-
2026-05-08 04:00 pmSSW 9.7 11.7------ 46.4--- 1.6-
2026-05-08 03:00 pmSSW 11.7 13.6------ 46.9--- 1.6-
2026-05-08 02:00 pm SW 13.6 15.5------ 46.8--- 1.6-
2026-05-08 01:30 pm SW 11.7 15.5------ 46.6--- 1.6-
2026-05-08 01:20 pm SW 13.6 15.5------ 46.6--- 1.6-
2026-05-08 01:10 pm SW 13.6 15.5------ 46.4--- 1.6-
2026-05-08 01:00 pm SW 13.6 15.5 3.3 8---- 46.6 44.6-- 1.6-
2026-05-08 12:50 pm SW 13.6 17.5------ 46.8--- 1.6-
2026-05-08 12:40 pm SW 13.6 15.5------ 46.4--- 1.6-
2026-05-08 12:30 pm SW 11.7 13.6------ 46.2--- 1.6-
2026-05-08 12:20 pm SW 13.6 15.5------ 46.2--- 1.6-
2026-05-08 12:10 pm SW 11.7 13.6------ 46.2--- 1.6-
2026-05-08 12:00 pm SW 11.7 13.6 3.0 8---- 45.9 44.4-- 1.6-
2026-05-08 11:50 am SW 11.7 13.6------ 45.7--- 1.6-
2026-05-08 11:40 am SW 11.7 13.6------ 45.9--- 1.6-
2026-05-08 11:30 am SW 11.7 13.6------ 45.7--- 1.6-
2026-05-08 11:20 am SW 11.7 13.6------ 45.5--- 1.6-
2026-05-08 11:10 am SW 11.7 13.6------ 45.7--- 1.6-
2026-05-08 11:00 am--- 2.3 8----------
2026-05-08 10:50 am SW 7.8 11.7------ 45.3--- 1.6-
2026-05-08 10:40 am SW 7.8 9.7------ 45.3--- 1.6-
2026-05-08 10:30 am SW 7.8 11.7------ 45.1--- 1.6-
2026-05-08 10:20 am SW 9.7 11.7------ 45.0--- 1.6-
2026-05-08 10:10 am SW 9.7 11.7------ 44.8--- 1.6-
2026-05-08 10:00 amWSW 9.7 11.7 2.3 7---- 45.0 44.1-- 1.6-
2026-05-08 09:50 amWSW 9.7 11.7------ 44.8--- 1.6-
2026-05-08 09:40 amWSW 9.7 11.7------ 44.8--- 1.6-
2026-05-08 09:30 amWSW 9.7 11.7------ 44.6--- 1.6-
2026-05-08 09:20 amWSW 7.8 9.7------ 44.6--- 1.6-
2026-05-08 09:10 amWSW 7.8 9.7------ 44.6--- 1.6-
2026-05-08 09:00 am SW 7.8 9.7 2.3 8---- 44.4 43.9-- 1.6-
2026-05-08 08:50 amWSW 7.8 9.7------ 44.6--- 1.6-
2026-05-08 08:40 amWSW 5.8 9.7------ 44.8--- 1.6-
2026-05-08 08:30 amWSW 5.8 7.8------ 45.0--- 1.6-
2026-05-08 08:20 amWSW 7.8 7.8------ 44.8--- 1.6-
2026-05-08 08:10 am W 5.8 7.8------ 45.0--- 1.6-
2026-05-08 08:00 am W 7.8 9.7 2.6 7---- 45.0 43.7-- 1.6-
2026-05-08 07:50 am W 5.8 9.7------ 44.8--- 1.6-
2026-05-08 07:40 am W 5.8 7.8------ 44.8--- 1.6-
2026-05-08 07:30 am W 7.8 9.7------ 44.8--- 1.6-
2026-05-08 07:20 am W 7.8 9.7------ 45.0--- 1.6-
2026-05-08 07:10 am W 7.8 9.7------ 44.8--- 1.6-
2026-05-08 07:00 am W 9.7 9.7 2.3 8---- 44.8 43.5-- 1.6-
2026-05-08 06:50 am W 9.7 11.7------ 45.0--- 1.6-

Ocean Conditions at 44032 as of
(5:30 am EDT)
0930 GMT on 05/09/2026:

These oceanographic data are displayed in rounded times.

     

Click on the graph icon in the table below to see a time series plot of the last five days of that observation.

Depth (DEPTH): 3.3 ft
5-day plot - Ocean Temperature Ocean Temperature (OTMP):44.04 °F
Previous observations
TIME
(EDT)
DEPTH
ft
5-day plot - Ocean Temperature
OTMP
°F
5-day plot - Conductivity
COND
mS/cm
5-day plot - Salinity
SAL
psu
5-day plot - Oxygen Saturation
O2%
%
5-day plot - Oxygen Concentration
O2PPM
ppm
5-day plot - Chlorophyll
CLCON
ug/l
5-day plot - Turbidity
TURB
FTU
5-day plot - pH
PH
 
5-day plot - Eh
EH
mV
2026-05-09 04:30 am 3.344.06--------
2026-05-09 03:30 am 3.344.13--------
2026-05-09 03:00 am 3.344.22--------
2026-05-09 02:30 am 3.344.24--------
2026-05-09 01:30 am 3.344.24--------
2026-05-09 01:00 am 3.344.33--------
2026-05-09 12:30 am 3.344.20--------
2026-05-09 12:00 am 3.344.02--------
2026-05-08 11:30 pm 3.344.04--------
2026-05-08 10:30 pm 3.344.06--------
2026-05-08 10:00 pm 3.343.99--------
2026-05-08 09:30 pm 3.343.97--------
2026-05-08 08:30 pm 3.344.13--------
2026-05-08 08:00 pm 3.344.37--------
2026-05-08 07:30 pm 3.344.42--------
2026-05-08 07:00 pm 3.344.38--------
2026-05-08 06:30 pm 3.344.33--------
2026-05-08 05:00 pm 3.344.64--------
2026-05-08 04:00 pm 3.344.69--------
2026-05-08 03:00 pm 3.344.46--------
2026-05-08 02:00 pm 3.344.60--------
2026-05-08 01:00 pm 3.344.64--------
2026-05-08 12:30 pm 3.344.74--------
2026-05-08 12:00 pm 3.344.38--------
2026-05-08 11:00 am 3.344.42--------
2026-05-08 10:00 am 3.344.11--------
2026-05-08 09:30 am 3.344.08--------
2026-05-08 09:00 am 3.343.83--------
2026-05-08 08:00 am 3.343.65--------
2026-05-08 07:30 am 3.343.43--------